Colville, WA (99114)

8:45 AM PDT on September 02, 2015 (GMT -0700)
10th Avenue Colville | | Change Station
CLOSE
Current Station
Personal Weather Station
Location: Colville, WA
Elevation: 1952 ft
Nearby Weather Stations

Elev 1952 ft 48.55 °N, 117.90 °W | Updated 1 minute ago

Overcast
Overcast
57.9 °F
Feels Like 57.9 °F
N
0.0
Wind Variable Wind from North
Gusts 0.0 mph

Today
High -- | Low -- °F
--% Chance of Precip.
Yesterday
High -- | Low -- °F
Precip. -- in
6:09 AM 7:31 PM
Waning Gibbous, 79% visible
Pressure 29.76 in
Visibility 10.0 miles
Clouds Mostly Cloudy 3600 ft
Mostly Cloudy 4800 ft
Overcast 10000 ft
Dew Point 53 °F
Humidity 85%
Rainfall 0.00 in
Snow Depth Not available.
UV 0 out of 12
Pollen 8.00 out of 12
Air Quality Not available.
Flu Activity Not available.
METAR KDEW 021453Z AUTO 17010KT 10SM BKN036 BKN048 OVC100 15/09 A2979 RMK AO2 SLP078 T01500089 51013
Pressure 29.76 in
Visibility 10.0 miles
Clouds Mostly Cloudy 3600 ft
Mostly Cloudy 4800 ft
Overcast 10000 ft
Dew Point 53 °F
Humidity 85%
Rainfall 0.00 in
Snow Depth Not available.
UV 0 out of 12
Pollen 8.00 out of 12
Air Quality Not available.
Flu Activity Not available.
METAR KDEW 021453Z AUTO 17010KT 10SM BKN036 BKN048 OVC100 15/09 A2979 RMK AO2 SLP078 T01500089 51013

10-Day Weather Forecast

×

Almanac

Astronomy

Sep. 02, 2015 Rise Set
Actual Time
Civil Twilight
Nautical Twilight
Astronomical Twilight
Moon
Length of Visible Light
Length of Day
Tomorrow will be .
, % of the Moon is Illuminated

Today's Extremes

State Highs State Lows

Community

WunderPhotos

Upload Photos

1,851,774 photos uploaded!

WunderBlogs® & News

Nearby

Air Quality

  Air Quality AQ Index Pollutant
Not available.

Snow Depth

Station Depth Elevation

Earthquake Activity

City Distance Mag. Time & Date
Minimum magnitude displayed is 2.5.

Coastal Water Temperatures

Place Temperature

Stations

Nearby Weather Stations

Station Location Temp. Windchill Dew Point Humidity Wind Precip. Elev Updated Type